TimeCDT,TemperatureF,Dew PointF,Humidity,Sea Level PressureIn,VisibilityMPH,Wind Direction,Wind SpeedMPH,Gust SpeedMPH,PrecipitationIn,Events,Conditions,WindDirDegrees,DateUTC
12:15 AM,54.1,52.9,95,29.95,10.0,West,3.5,-,N/A,,Mostly Cloudy,260,2013-09-15 05:15:00
12:35 AM,53.2,52.7,98,29.96,10.0,Calm,Calm,-,N/A,,Scattered Clouds,0,2013-09-15 05:35:00
12:55 AM,52.0,51.6,99,29.95,10.0,Calm,Calm,-,N/A,,Clear,0,2013-09-15 05:55:00
1:15 AM,51.4,51.3,99,29.95,10.0,Calm,Calm,-,N/A,,Scattered Clouds,0,2013-09-15 06:15:00
1:35 AM,52.2,52.0,99,29.96,10.0,Calm,Calm,-,N/A,,Mostly Cloudy,0,2013-09-15 06:35:00
1:55 AM,53.1,52.9,99,29.96,10.0,Calm,Calm,-,N/A,,Overcast,0,2013-09-15 06:55:00
2:15 AM,54.0,53.4,98,29.96,10.0,Calm,Calm,-,N/A,,Overcast,0,2013-09-15 07:15:00
2:35 AM,54.0,53.2,97,29.96,10.0,Calm,Calm,-,N/A,,Overcast,0,2013-09-15 07:35:00
2:55 AM,53.8,53.2,98,29.96,10.0,Calm,Calm,-,N/A,,Overcast,0,2013-09-15 07:55:00
3:15 AM,53.6,53.2,99,29.96,10.0,Calm,Calm,-,N/A,,Overcast,0,2013-09-15 08:15:00
3:35 AM,53.8,53.6,99,29.97,10.0,Calm,Calm,-,N/A,,Overcast,0,2013-09-15 08:35:00
3:55 AM,54.1,53.4,97,29.97,10.0,Calm,Calm,-,N/A,,Overcast,0,2013-09-15 08:55:00
4:15 AM,54.3,53.6,97,29.97,10.0,Calm,Calm,-,N/A,,Overcast,0,2013-09-15 09:15:00
4:35 AM,54.0,53.6,99,29.98,10.0,Calm,Calm,-,N/A,,Overcast,0,2013-09-15 09:35:00
4:55 AM,54.5,54.0,98,29.98,10.0,Calm,Calm,-,0.01,,Overcast,0,2013-09-15 09:55:00
5:15 AM,54.1,53.8,99,29.99,10.0,Calm,Calm,-,N/A,,Overcast,0,2013-09-15 10:15:00
5:35 AM,54.5,54.0,98,29.99,10.0,Calm,Calm,-,N/A,,Overcast,0,2013-09-15 10:35:00
5:55 AM,54.1,53.6,98,29.99,10.0,Calm,Calm,-,N/A,,Overcast,0,2013-09-15 10:55:00
6:15 AM,54.0,53.6,99,29.99,10.0,Calm,Calm,-,N/A,,Overcast,0,2013-09-15 11:15:00
6:35 AM,54.1,53.6,98,29.99,10.0,Calm,Calm,-,N/A,,Overcast,0,2013-09-15 11:35:00
6:55 AM,54.5,53.8,97,30.00,10.0,Calm,Calm,-,N/A,,Overcast,0,2013-09-15 11:55:00
7:15 AM,54.7,54.1,98,30.01,10.0,Calm,Calm,-,N/A,,Overcast,0,2013-09-15 12:15:00
7:35 AM,55.6,54.5,96,30.01,10.0,North,3.5,-,N/A,,Overcast,350,2013-09-15 12:35:00
7:55 AM,56.5,54.5,93,30.02,10.0,NNE,6.9,-,N/A,,Overcast,20,2013-09-15 12:55:00
8:15 AM,55.4,54.0,95,30.04,4.0,NE,18.4,28.8,N/A,Rain,Light Rain,40,2013-09-15 13:15:00
8:35 AM,54.0,52.9,96,30.06,3.0,ENE,17.3,27.6,N/A,Rain,Light Rain,60,2013-09-15 13:35:00
8:55 AM,53.6,52.7,97,30.07,7.0,ENE,16.1,20.7,N/A,,Overcast,60,2013-09-15 13:55:00
9:15 AM,53.4,52.0,95,30.09,10.0,ENE,15.0,28.8,N/A,,Overcast,70,2013-09-15 14:15:00
9:35 AM,53.2,51.8,95,30.11,10.0,ENE,17.3,27.6,N/A,,Overcast,60,2013-09-15 14:35:00
9:55 AM,52.7,51.1,94,30.12,7.0,ENE,19.6,24.2,N/A,,Overcast,70,2013-09-15 14:55:00
10:15 AM,52.7,51.1,94,30.13,7.0,ENE,17.3,26.5,N/A,,Overcast,70,2013-09-15 15:15:00
10:35 AM,53.8,50.2,88,30.15,10.0,ENE,15.0,25.3,N/A,,Overcast,70,2013-09-15 15:35:00
10:55 AM,53.6,50.0,88,30.16,10.0,ENE,16.1,26.5,N/A,,Overcast,60,2013-09-15 15:55:00
11:15 AM,52.9,50.0,90,30.16,5.0,East,17.3,24.2,N/A,,Overcast,80,2013-09-15 16:15:00
11:35 AM,53.6,49.5,86,30.17,7.0,East,12.7,23.0,N/A,,Overcast,80,2013-09-15 16:35:00
11:55 AM,53.1,48.6,85,30.19,7.0,ENE,15.0,27.6,N/A,,Overcast,70,2013-09-15 16:55:00
12:15 PM,53.8,47.5,79,30.19,10.0,East,16.1,24.2,N/A,,Overcast,90,2013-09-15 17:15:00
12:35 PM,54.3,48.2,80,30.20,10.0,East,17.3,23.0,N/A,,Overcast,90,2013-09-15 17:35:00
12:55 PM,55.0,47.5,76,30.20,10.0,East,15.0,19.6,N/A,,Overcast,80,2013-09-15 17:55:00
1:15 PM,55.4,47.1,74,30.21,10.0,East,15.0,23.0,N/A,,Overcast,90,2013-09-15 18:15:00
1:35 PM,54.9,47.3,76,30.22,10.0,East,13.8,21.9,N/A,,Overcast,80,2013-09-15 18:35:00
1:55 PM,54.7,46.9,75,30.22,10.0,East,15.0,20.7,N/A,,Overcast,80,2013-09-15 18:55:00
2:15 PM,54.7,47.3,76,30.23,10.0,East,15.0,20.7,N/A,,Overcast,80,2013-09-15 19:15:00
2:35 PM,54.7,47.5,77,30.24,10.0,East,12.7,17.3,N/A,,Overcast,80,2013-09-15 19:35:00
2:55 PM,54.0,46.6,76,30.24,10.0,ENE,8.1,-,N/A,,Overcast,70,2013-09-15 19:55:00
3:15 PM,53.6,46.8,78,30.24,10.0,ENE,10.4,16.1,N/A,,Overcast,60,2013-09-15 20:15:00
3:35 PM,53.6,47.3,79,30.25,10.0,East,9.2,-,N/A,,Overcast,90,2013-09-15 20:35:00
3:55 PM,53.6,46.6,77,30.25,10.0,East,8.1,-,N/A,,Overcast,80,2013-09-15 20:55:00
4:15 PM,53.1,46.6,79,30.26,10.0,East,6.9,-,N/A,,Overcast,80,2013-09-15 21:15:00
4:35 PM,53.6,46.8,78,30.26,10.0,East,8.1,-,N/A,,Overcast,90,2013-09-15 21:35:00
4:55 PM,53.8,46.6,77,30.26,10.0,East,6.9,-,N/A,,Overcast,100,2013-09-15 21:55:00
5:15 PM,53.8,46.6,77,30.27,10.0,East,6.9,-,N/A,,Overcast,80,2013-09-15 22:15:00
5:35 PM,53.4,46.6,78,30.27,10.0,Calm,Calm,-,N/A,,Overcast,0,2013-09-15 22:35:00
5:55 PM,54.3,46.6,75,30.28,10.0,ESE,3.5,-,N/A,,Mostly Cloudy,110,2013-09-15 22:55:00
6:15 PM,54.7,47.1,76,30.28,10.0,SE,3.5,-,N/A,,Scattered Clouds,140,2013-09-15 23:15:00
6:35 PM,52.7,46.8,80,30.28,10.0,Calm,Calm,-,N/A,,Mostly Cloudy,0,2013-09-15 23:35:00
6:55 PM,51.1,46.6,85,30.28,10.0,Calm,Calm,-,N/A,,Scattered Clouds,0,2013-09-15 23:55:00
7:15 PM,49.3,46.2,89,30.29,10.0,Calm,Calm,-,N/A,,Clear,0,2013-09-16 00:15:00
7:35 PM,45.7,45.3,99,30.29,10.0,Calm,Calm,-,N/A,,Clear,0,2013-09-16 00:35:00
7:55 PM,42.6,42.3,99,30.29,10.0,Calm,Calm,-,N/A,,Clear,0,2013-09-16 00:55:00
8:15 PM,40.8,40.6,99,30.29,10.0,Calm,Calm,-,N/A,,Clear,0,2013-09-16 01:15:00
8:35 PM,40.1,39.7,99,30.30,10.0,Calm,Calm,-,N/A,,Clear,0,2013-09-16 01:35:00
8:55 PM,40.5,40.3,99,30.30,10.0,Calm,Calm,-,N/A,,Clear,0,2013-09-16 01:55:00
9:15 PM,39.4,39.4,100,30.30,4.0,Calm,Calm,-,N/A,,Clear,0,2013-09-16 02:15:00
9:35 PM,38.3,38.3,100,30.31,7.0,Calm,Calm,-,N/A,,Clear,0,2013-09-16 02:35:00
9:55 PM,36.9,36.9,100,30.31,7.0,Calm,Calm,-,N/A,,Clear,0,2013-09-16 02:55:00
10:15 PM,37.6,37.6,100,30.32,10.0,Calm,Calm,-,N/A,,Clear,0,2013-09-16 03:15:00
10:35 PM,34.9,34.9,100,30.32,4.0,Calm,Calm,-,N/A,,Clear,0,2013-09-16 03:35:00
10:55 PM,37.4,37.4,100,30.32,3.0,Calm,Calm,-,N/A,,Clear,0,2013-09-16 03:55:00
11:15 PM,34.9,34.9,100,30.33,4.0,Calm,Calm,-,N/A,,Scattered Clouds,0,2013-09-16 04:15:00
11:35 PM,36.3,36.3,100,30.33,10.0,Calm,Calm,-,N/A,,Scattered Clouds,0,2013-09-16 04:35:00
11:55 PM,35.4,35.4,100,30.33,0.8,Calm,Calm,-,N/A,,Overcast,0,2013-09-16 04:55:00